CW6888 Weather Reports


Display with metric or nautical units.
time (UTC)temp
F
wind
direction
speed
MPH
gust
MPH
rain 1hr
in
rain 24hr
in
rain mn
in
humidity
%
barometer
mb
20210613193016 73 248 0.0 0.0 0.00 0.00 0.00 87 1012.6
20210613192033 73 248 0.0 0.0 0.00 0.00 0.00 86 1012.6
20210613191033 73 248 0.0 0.0 0.00 0.00 0.00 85 1012.6
20210613190052 73 248 0.0 2.0 0.00 0.00 0.00 86 1012.7
20210613185026 73 248 0.0 3.0 0.00 0.00 0.00 86 1012.8
20210613184023 73 248 0.0 2.0 0.00 0.00 0.00 85 1012.9
20210613183035 73 325 0.0 0.0 0.00 0.00 0.00 86 1013.1
20210613182017 73 328 0.0 0.0 0.00 0.00 0.00 85 1013.3
20210613181032 73 336 0.0 0.0 0.00 0.00 0.00 84 1013.3
20210613180049 73 336 0.0 2.0 0.00 0.00 0.00 84 1013.3
20210613175031 73 242 0.0 0.0 0.00 0.00 0.00 84 1013.5
20210613174033 73 242 0.0 3.0 0.00 0.00 0.00 84 1013.4
20210613173025 73 238 0.0 4.0 0.00 0.00 0.00 82 1013.3
20210613172020 74 194 1.0 5.0 0.00 0.00 0.00 82 1013.4
20210613171018 74 263 0.0 6.0 0.00 0.00 0.00 83 1013.2
20210613170056 74 236 0.0 3.0 0.00 0.00 0.00 81 1013.3
20210613165030 74 240 3.0 5.0 0.00 0.00 0.00 81 1013.3
20210613164028 74 151 1.0 3.0 0.00 0.00 0.00 82 1013.3
20210613163028 73 186 1.0 3.0 0.00 0.00 0.00 83 1013.5
20210613162028 73 163 1.0 5.0 0.00 0.00 0.00 83 1013.7
20210613161024 73 192 0.0 4.0 0.00 0.00 0.00 83 1013.9
20210613160041 73 206 1.0 4.0 0.00 0.00 0.00 82 1013.9
20210613155030 74 186 2.0 4.0 0.00 0.00 0.00 82 1013.9
20210613154021 73 257 2.0 6.0 0.00 0.00 0.00 83 1013.8
20210613153020 73 186 2.0 5.0 0.00 0.00 0.00 82 1013.8
20210613152029 73 223 2.0 4.0 0.00 0.00 0.00 84 1013.8
20210613151022 73 187 3.0 4.0 0.00 0.00 0.00 84 1013.8
20210613150049 72 188 1.0 4.0 0.00 0.00 0.00 86 1013.7
20210613145033 71 181 2.0 4.0 0.00 0.00 0.00 87 1013.7
20210613144024 71 186 1.0 3.0 0.00 0.00 0.00 88 1013.9
20210613143022 71 154 1.0 3.0 0.00 0.00 0.00 88 1014.0
20210613142030 70 269 1.0 3.0 0.00 0.00 0.00 88 1014.0
20210613141022 70 270 0.0 0.0 0.00 0.00 0.00 88 1013.9
20210613140042 70 191 0.0 0.0 0.00 0.00 0.00 88 1014.0
20210613135035 69 182 0.0 0.0 0.00 0.00 0.00 89 1014.0
20210613134028 69 187 0.0 3.0 0.00 0.00 0.00 90 1014.0
20210613133019 68 182 1.0 5.0 0.00 0.00 0.00 90 1014.1
20210613132028 68 192 0.0 0.0 0.00 0.00 0.00 92 1014.0
20210613131017 67 184 0.0 0.0 0.00 0.00 0.00 92 1013.9
20210613130047 67 184 0.0 0.0 0.00 0.00 0.00 93 1013.9
20210613125034 66 188 0.0 0.0 0.00 0.00 0.00 92 1014.0
20210613124033 66 186 0.0 0.0 0.00 0.00 0.00 93 1013.8
20210613123029 65 112 0.0 0.0 0.00 0.00 0.00 94 1013.9
20210613122027 65 112 0.0 0.0 0.00 0.00 0.00 95 1013.8
20210613121017 64 111 0.0 0.0 0.00 0.00 0.00 95 1013.8
20210613120058 64 111 0.0 0.0 0.00 0.00 0.00 96 1013.8
20210613115027 64 99 0.0 0.0 0.00 0.00 0.00 96 1013.8
20210613114019 63 99 0.0 0.0 0.00 0.00 0.00 96 1013.9
20210613113035 63 78 0.0 0.0 0.00 0.00 0.00 96 1013.9
20210613112029 63 174 0.0 0.0 0.00 0.00 0.00 95 1013.9
20210613111020 62 174 0.0 0.0 0.00 0.00 0.00 96 1013.9
20210613110052 62 174 0.0 0.0 0.00 0.00 0.00 95 1013.9
20210613105022 62 174 0.0 0.0 0.00 0.00 0.00 95 1013.7
20210613104016 62 174 0.0 0.0 0.00 0.00 0.00 95 1013.7
20210613103026 62 174 0.0 0.0 0.00 0.00 0.00 94 1013.8
20210613102020 62 174 0.0 0.0 0.00 0.00 0.00 94 1013.6
20210613101035 62 174 0.0 0.0 0.00 0.00 0.00 94 1013.5
20210613100053 62 174 0.0 0.0 0.00 0.00 0.00 93 1013.3
20210613095024 62 174 0.0 0.0 0.00 0.00 0.00 93 1013.4
20210613094020 62 174 0.0 0.0 0.00 0.00 0.00 93 1013.6
20210613093033 62 174 0.0 0.0 0.00 0.00 0.00 92 1013.3
20210613092030 62 174 0.0 0.0 0.00 0.00 0.00 92 1013.2
20210613091027 62 174 0.0 0.0 0.00 0.00 0.00 91 1013.4
20210613090048 62 174 0.0 0.0 0.00 0.00 0.00 91 1013.3
20210613085027 62 174 0.0 0.0 0.00 0.00 0.00 91 1013.4
20210613084024 62 174 0.0 0.0 0.00 0.00 0.00 91 1013.3
20210613083018 62 174 0.0 0.0 0.00 0.00 0.00 91 1013.4
20210613082017 62 174 0.0 0.0 0.00 0.00 0.00 91 1013.1
20210613081017 62 174 0.0 0.0 0.00 0.00 0.00 91 1013.1
20210613080039 62 174 0.0 0.0 0.00 0.00 0.00 92 1013.0
20210613075030 62 174 0.0 0.0 0.00 0.00 0.00 92 1013.1
20210613074027 62 174 0.0 0.0 0.00 0.00 0.00 93 1013.2
20210613073027 63 174 0.0 0.0 0.00 0.00 0.00 93 1013.2
20210613072024 63 174 0.0 0.0 0.00 0.00 0.00 93 1013.3
20210613071030 63 174 0.0 0.0 0.00 0.00 0.00 93 1013.2
20210613070045 63 174 0.0 0.0 0.00 0.00 0.00 94 1013.2
20210613065034 63 174 0.0 0.0 0.00 0.00 0.00 94 1013.1
20210613064033 64 174 0.0 0.0 0.00 0.00 0.00 94 1013.2
20210613063027 64 174 0.0 0.0 0.00 0.00 0.00 94 1013.3
20210613062023 64 174 0.0 0.0 0.00 0.00 0.00 94 1013.1
20210613061017 64 174 0.0 0.0 0.00 0.00 0.00 93 1013.0
20210613060046 64 174 0.0 1.0 0.00 0.00 0.00 94 1012.9
20210613055022 65 174 2.0 3.0 0.00 0.00 0.00 94 1012.9
20210613054026 65 174 0.0 0.0 0.00 0.00 0.00 93 1012.9
20210613053021 65 174 0.0 0.0 0.00 0.00 0.00 93 1013.1
20210613052033 65 174 0.0 0.0 0.00 0.00 0.00 93 1013.3
20210613051026 66 174 0.0 0.0 0.00 0.00 0.00 93 1013.3
20210613050043 66 174 0.0 0.0 0.00 0.00 0.00 92 1013.4
20210613045032 66 174 0.0 0.0 0.00 0.00 0.00 92 1013.2
20210613044029 66 174 0.0 0.0 0.00 0.00 0.00 91 1013.3
20210613043023 67 174 0.0 0.0 0.00 0.00 0.00 90 1013.2
20210613042034 67 174 0.0 0.0 0.00 0.00 0.00 90 1013.2
20210613041025 67 174 0.0 0.0 0.00 0.00 0.00 90 1013.2
20210613040102 66 174 0.0 0.0 0.00 0.00 0.00 91 1013.1
20210613035027 67 174 0.0 0.0 0.00 0.00 0.00 93 1013.0
20210613034024 66 174 0.0 0.0 0.00 0.00 0.00 92 1012.9
20210613033024 66 174 0.0 0.0 0.00 0.00 0.00 91 1013.0
20210613032019 66 174 0.0 0.0 0.00 0.00 0.00 90 1012.8
20210613031018 67 174 0.0 0.0 0.00 0.00 0.00 91 1012.8
20210613030057 67 174 0.0 0.0 0.00 0.00 0.00 91 1012.7
20210613025026 67 174 0.0 0.0 0.00 0.00 0.00 90 1012.7
20210613024021 66 174 0.0 0.0 0.00 0.00 0.00 90 1012.8
20210613023023 66 174 0.0 0.0 0.00 0.00 0.00 89 1012.9
20210613022021 67 174 0.0 0.0 0.00 0.00 0.00 89 1012.9
20210613021031 67 174 0.0 0.0 0.00 0.00 0.00 88 1012.7
20210613020049 67 174 0.0 0.0 0.00 0.00 0.00 88 1012.6
20210613015026 68 174 0.0 0.0 0.00 0.00 0.00 87 1012.3
20210613014023 68 174 0.0 0.0 0.00 0.00 0.00 87 1012.2
20210613013022 68 174 0.0 0.0 0.00 0.00 0.00 87 1012.0
20210613012026 69 174 0.0 0.0 0.00 0.00 0.00 87 1011.9
20210613011027 69 174 0.0 0.0 0.00 0.00 0.00 86 1011.9
20210613010046 70 174 0.0 0.0 0.00 0.00 0.00 85 1011.7
20210613005019 70 174 0.0 0.0 0.00 0.00 0.00 84 1011.7
20210613004017 70 174 0.0 0.0 0.00 0.00 0.00 84 1011.6
20210613003034 71 174 0.0 0.0 0.00 0.00 0.00 83 1011.6
20210613002034 71 174 0.0 0.0 0.00 0.00 0.00 82 1011.7
20210613001033 71 174 0.0 0.0 0.00 0.00 0.00 81 1011.7
20210613000050 72 174 0.0 0.0 0.00 0.00 0.00 81 1012.0
20210612235029 72 174 0.0 0.0 0.00 0.00 0.00 81 1011.8
20210612234026 72 174 0.0 0.0 0.00 0.00 0.00 81 1011.8
20210612233025 72 174 0.0 0.0 0.00 0.00 0.00 79 1011.7
20210612232018 73 174 0.0 0.0 0.00 0.00 0.00 79 1011.7
20210612231017 73 174 0.0 0.0 0.00 0.00 0.00 79 1011.5
20210612230044 73 174 0.0 0.0 0.00 0.00 0.00 79 1011.4
20210612225017 73 174 0.0 0.0 0.00 0.00 0.00 78 1011.2
20210612224017 73 174 0.0 0.0 0.00 0.00 0.00 77 1011.1
20210612223037 74 174 0.0 0.0 0.00 0.00 0.00 77 1011.0
20210612222033 74 174 0.0 0.0 0.00 0.00 0.00 76 1010.9
20210612221016 74 174 0.0 0.0 0.00 0.00 0.00 75 1010.8
20210612220052 75 174 0.0 0.0 0.00 0.00 0.00 75 1010.8
20210612215026 75 174 0.0 0.0 0.00 0.01 0.00 72 1010.8
20210612214026 75 174 0.0 0.0 0.00 0.01 0.00 72 1010.8
20210612213025 76 174 0.0 0.0 0.00 0.01 0.00 72 1010.9
20210612212027 77 174 0.0 0.0 0.00 0.01 0.00 69 1010.8
20210612211017 77 174 0.0 0.0 0.00 0.01 0.00 75 1010.8
20210612210044 77 150 0.0 0.0 0.00 0.01 0.00 73 1010.6
20210612205033 76 64 0.0 0.0 0.00 0.09 0.00 69 1010.5
20210612204026 77 177 0.0 0.0 0.00 0.09 0.00 71 1010.7
20210612203025 77 245 0.0 0.0 0.00 0.09 0.00 71 1011.0
20210612202030 77 246 0.0 0.0 0.00 0.09 0.00 74 1011.1
20210612201022 76 194 0.0 3.0 0.00 0.09 0.00 72 1011.2
20210612200054 76 247 1.0 4.0 0.00 0.09 0.00 73 1011.4
20210612195025 76 253 0.0 0.0 0.00 0.23 0.00 77 1011.4
20210612194028 75 254 0.0 0.0 0.00 0.23 0.00 72 1011.5